When you browse on this site, cookies collect data to enhance your experience and personalize the content and advertising you see.
Visit our Privacy Policy to learn more. By continuing to use the site, you agree to this use of cookies and data.
  • In Hungary
  • List of Countries
  • For 7 days
  • Water Temperature
  • Satellite Maps
  • Weather Map
  • News
  • Weather Widgets
  • user-avatar
    Login

    Hourly Weather Prohres

    Today, 11 December, Tuesday

    Time Temperature Precipitation Wind Pressure Humidity
    00:00 0°C° 0.4 mm 4 mps 745 mmHg 97%
    01:00 0°C° 0.4 mm 4 mps 745 mmHg 97%
    02:00 0°C° 0.4 mm 4 mps 745 mmHg 97%
    03:00 +2°C° 0 mm 2 mps 745 mmHg 98%
    04:00 +2°C° 0.1 mm 2 mps 745 mmHg 98%
    05:00 +1°C° 0.1 mm 3 mps 745 mmHg 98%
    06:00 +1°C° 0.1 mm 3 mps 745 mmHg 98%
    07:00 +1°C° 0 mm 3 mps 745 mmHg 98%
    08:00 +1°C° 0 mm 3 mps 745 mmHg 98%
    09:00 +1°C° 0 mm 3 mps 746 mmHg 98%
    10:00 +1°C° 0 mm 3 mps 746 mmHg 98%
    11:00 +1°C° 0 mm 3 mps 746 mmHg 98%
    12:00 +1°C° 0 mm 3 mps 745 mmHg 98%
    13:00 0°C° 0 mm 4 mps 745 mmHg 97%
    14:00 0°C° 0 mm 4 mps 745 mmHg 97%
    15:00 0°C° 0 mm 4 mps 745 mmHg 96%
    16:00 0°C° 0.1 mm 4 mps 745 mmHg 96%
    17:00 0°C° 0.1 mm 4 mps 745 mmHg 96%
    18:00 0°C° 0.1 mm 4 mps 746 mmHg 95%
    19:00 0°C° 0.4 mm 4 mps 745 mmHg 95%
    20:00 0°C° 0.4 mm 5 mps 745 mmHg 95%
    21:00 -1°C° 0.4 mm 6 mps 745 mmHg 95%
    22:00 -1°C° 0.6 mm 6 mps 745 mmHg 95%
    23:00 -1°C° 0.6 mm 6 mps 744 mmHg 94%

    Tomorrow, 12 December, Wednesday

    Time Temperature Precipitation Wind Pressure Humidity
    00:00 -1°C° 0.6 mm 7 mps 744 mmHg 94%
    01:00 -1°C° 0.3 mm 7 mps 744 mmHg 94%
    02:00 -1°C° 0.3 mm 7 mps 743 mmHg 94%
    03:00 -1°C° 0.3 mm 7 mps 743 mmHg 94%
    04:00 -1°C° 0.1 mm 7 mps 743 mmHg 94%
    05:00 0°C° 0.1 mm 7 mps 742 mmHg 94%
    06:00 +1°C° 0.1 mm 6 mps 742 mmHg 94%
    07:00 0°C° 0 mm 7 mps 742 mmHg 93%
    08:00 0°C° 0 mm 7 mps 742 mmHg 93%
    09:00 +2°C° 0 mm 7 mps 741 mmHg 92%
    10:00 +2°C° 0 mm 7 mps 741 mmHg 91%
    11:00 +2°C° 0 mm 7 mps 741 mmHg 90%
    12:00 +2°C° 0 mm 7 mps 741 mmHg 89%
    13:00 +2°C° 0.1 mm 6 mps 742 mmHg 89%
    14:00 +2°C° 0.1 mm 6 mps 742 mmHg 89%
    15:00 +2°C° 0.1 mm 5 mps 742 mmHg 89%
    16:00 +1°C° 0.4 mm 5 mps 742 mmHg 89%
    17:00 +1°C° 0.4 mm 5 mps 742 mmHg 89%
    18:00 +1°C° 0.4 mm 5 mps 743 mmHg 90%
    19:00 +1°C° 0.3 mm 5 mps 743 mmHg 90%
    20:00 0°C° 0.3 mm 4 mps 743 mmHg 89%
    21:00 0°C° 0.3 mm 4 mps 744 mmHg 89%
    22:00 0°C° 0.1 mm 4 mps 744 mmHg 89%
    23:00 0°C° 0.1 mm 4 mps 745 mmHg 89%

    Day after tomorrow, 13 December, Thursday

    Time Temperature Precipitation Wind Pressure Humidity
    00:00 0°C° 0.1 mm 4 mps 745 mmHg 88%
    01:00 0°C° 0 mm 4 mps 746 mmHg 87%
    02:00 0°C° 0 mm 4 mps 746 mmHg 87%
    03:00 -1°C° 0 mm 4 mps 747 mmHg 86%
    04:00 -1°C° 0 mm 4 mps 747 mmHg 86%
    05:00 0°C° 0 mm 3 mps 748 mmHg 86%
    06:00 0°C° 0 mm 3 mps 748 mmHg 86%
    07:00 0°C° 0 mm 3 mps 749 mmHg 86%
    08:00 -1°C° 0 mm 3 mps 750 mmHg 86%
    09:00 -1°C° 0 mm 3 mps 750 mmHg 86%
    10:00 0°C° 0 mm 3 mps 751 mmHg 83%
    11:00 -1°C° 0 mm 4 mps 751 mmHg 80%
    12:00 0°C° 0 mm 4 mps 751 mmHg 78%
    13:00 0°C° 0 mm 4 mps 752 mmHg 77%
    14:00 +1°C° 0 mm 3 mps 752 mmHg 76%
    15:00 +1°C° 0 mm 3 mps 752 mmHg 75%
    16:00 0°C° 0 mm 3 mps 753 mmHg 77%
    17:00 +1°C° 0 mm 2 mps 753 mmHg 80%
    18:00 -1°C° 0 mm 2 mps 754 mmHg 82%
    19:00 -1°C° 0 mm 3 mps 754 mmHg 83%
    20:00 -1°C° 0 mm 3 mps 754 mmHg 84%
    21:00 -1°C° 0 mm 3 mps 755 mmHg 84%
    22:00 -1°C° 0 mm 3 mps 755 mmHg 85%
    23:00 -1°C° 0 mm 3 mps 755 mmHg 86%

    14 December, Friday

    Time Temperature Precipitation Wind Pressure Humidity
    00:00 -1°C° 0 mm 3 mps 755 mmHg 87%
    01:00 -1°C° 0 mm 3 mps 756 mmHg 87%
    02:00 -1°C° 0 mm 3 mps 756 mmHg 87%
    03:00 -1°C° 0 mm 3 mps 756 mmHg 87%
    04:00 -1°C° 0 mm 3 mps 756 mmHg 87%
    05:00 -1°C° 0 mm 3 mps 756 mmHg 87%
    06:00 -1°C° 0 mm 3 mps 756 mmHg 87%
    07:00 -1°C° 0 mm 3 mps 756 mmHg 87%
    08:00 -1°C° 0 mm 3 mps 756 mmHg 87%
    09:00 -1°C° 0 mm 3 mps 757 mmHg 87%
    10:00 -1°C° 0 mm 3 mps 757 mmHg 84%
    11:00 0°C° 0 mm 3 mps 757 mmHg 81%
    12:00 +1°C° 0 mm 3 mps 757 mmHg 78%
    13:00 +1°C° 0 mm 3 mps 757 mmHg 78%
    14:00 +2°C° 0 mm 2 mps 757 mmHg 79%
    15:00 +2°C° 0 mm 2 mps 757 mmHg 80%
    16:00 +1°C° 0 mm 2 mps 757 mmHg 83%
    17:00 +1°C° 0 mm 2 mps 757 mmHg 85%
    18:00 -1°C° 0 mm 2 mps 757 mmHg 88%
    19:00 -1°C° 0 mm 2 mps 757 mmHg 88%
    20:00 -1°C° 0 mm 2 mps 758 mmHg 89%
    21:00 -2°C° 0 mm 2 mps 758 mmHg 89%
    22:00 -2°C° 0 mm 2 mps 758 mmHg 89%
    23:00 -2°C° 0 mm 2 mps 758 mmHg 89%

    15 December, Saturday

    Time Temperature Precipitation Wind Pressure Humidity
    00:00 0°C° 0 mm 1 mps 758 mmHg 89%
    01:00 0°C° 0 mm 1 mps 758 mmHg 89%
    02:00 0°C° 0 mm 1 mps 758 mmHg 89%
    03:00 0°C° 0 mm 1 mps 759 mmHg 89%
    04:00 0°C° 0 mm 1 mps 759 mmHg 89%
    05:00 -2°C° 0 mm 2 mps 759 mmHg 89%
    06:00 -2°C° 0 mm 2 mps 759 mmHg 89%
    07:00 -2°C° 0 mm 2 mps 759 mmHg 89%
    08:00 -3°C° 0 mm 2 mps 759 mmHg 89%
    09:00 -3°C° 0 mm 2 mps 759 mmHg 89%
    10:00 -2°C° 0 mm 2 mps 760 mmHg 86%
    11:00 -1°C° 0 mm 2 mps 760 mmHg 83%
    12:00 -1°C° 0 mm 2 mps 760 mmHg 80%
    13:00 -1°C° 0 mm 2 mps 760 mmHg 80%
    14:00 +1°C° 0 mm 2 mps 761 mmHg 80%
    15:00 +1°C° 0 mm 2 mps 761 mmHg 81%
    16:00 -1°C° 0 mm 2 mps 761 mmHg 83%
    17:00 -2°C° 0 mm 2 mps 761 mmHg 86%
    18:00 -2°C° 0 mm 2 mps 761 mmHg 89%
    19:00 -2°C° 0 mm 2 mps 762 mmHg 89%
    20:00 -2°C° 0 mm 2 mps 762 mmHg 88%
    21:00 -2°C° 0 mm 2 mps 762 mmHg 88%
    22:00 -2°C° 0 mm 2 mps 762 mmHg 88%
    23:00 -2°C° 0 mm 2 mps 762 mmHg 88%

    16 December, Sunday

    Time Temperature Precipitation Wind Pressure Humidity
    00:00 -3°C° 0 mm 2 mps 763 mmHg 88%
    01:00 -3°C° 0 mm 2 mps 763 mmHg 89%
    02:00 -3°C° 0 mm 2 mps 763 mmHg 89%
    03:00 -4°C° 0 mm 3 mps 763 mmHg 89%
    04:00 -4°C° 0 mm 3 mps 763 mmHg 90%
    05:00 -4°C° 0 mm 3 mps 763 mmHg 90%
    06:00 -4°C° 0 mm 3 mps 763 mmHg 90%
    07:00 -4°C° 0 mm 3 mps 763 mmHg 90%
    08:00 -4°C° 0 mm 3 mps 763 mmHg 89%
    09:00 -4°C° 0 mm 3 mps 764 mmHg 89%
    10:00 -4°C° 0 mm 4 mps 764 mmHg 86%
    11:00 -3°C° 0 mm 4 mps 764 mmHg 82%
    12:00 -3°C° 0 mm 4 mps 764 mmHg 79%
    13:00 -3°C° 0 mm 4 mps 764 mmHg 79%
    14:00 -3°C° 0 mm 4 mps 763 mmHg 78%
    15:00 -2°C° 0 mm 4 mps 763 mmHg 78%
    16:00 -3°C° 0 mm 4 mps 763 mmHg 80%
    17:00 -3°C° 0 mm 4 mps 764 mmHg 82%
    18:00 -4°C° 0 mm 4 mps 764 mmHg 84%
    19:00 -4°C° 0 mm 4 mps 764 mmHg 84%
    20:00 -5°C° 0 mm 5 mps 764 mmHg 84%
    21:00 -5°C° 0 mm 5 mps 764 mmHg 84%
    22:00 -5°C° 0 mm 5 mps 764 mmHg 84%
    23:00 -6°C° 0 mm 5 mps 764 mmHg 83%
    Show more